Theta_e
342 342 341 339 339 341 341 341 340 340 338 338 340 341 341 341 340 338 338 338 338 335 334 337 339 339 339 338 337 337 337 335 333 332 331 329 328 329 330 330 331 333 333 333 332 332 334 334 333 333 333 334 335 336 335 335 334 333 333 333 333 332 331 330 330 330 329 328 327 325 322 319 317 313 306 301 301 301 300 300 300 300 300 300 299
343 343 342 342 341 342 342 341 341 340 339 339 340 341 341 341 340 338 338 338 337 336 334 335 337 339 338 337 336 337 337 335 334 333 332 330 329 330 331 331 332 333 333 332 331 332 334 334 334 333 334 334 335 335 334 334 333 331 331 331 332 332 331 330 330 329 329 328 326 323 319 317 314 309 302 300 301 300 300 300 300 300 299 299 299
343 343 342 342 342 343 342 342 341 340 340 340 340 341 341 341 340 339 338 338 337 337 335 333 335 338 338 336 337 338 338 336 334 334 331 330 330 331 332 333 333 334 333 331 330 331 333 335 334 334 334 333 334 334 333 333 332 330 330 329 329 330 331 331 330 329 328 327 324 320 317 315 312 308 302 300 301 300 300 300 300 300 300 299 300
343 343 342 343 344 344 344 343 342 341 341 341 341 342 341 341 340 339 339 338 337 337 335 334 334 336 337 337 337 338 338 336 336 335 332 330 331 332 334 334 334 334 333 331 330 331 332 334 335 334 334 333 331 331 331 330 330 330 329 328 327 327 329 330 330 329 328 327 323 318 315 313 312 310 304 300 300 300 300 301 302 302 302 302 301
343 343 342 343 345 345 344 343 342 342 342 342 341 342 342 341 340 340 339 338 337 336 336 334 334 336 337 338 338 338 338 337 336 335 333 331 331 333 334 334 334 334 333 332 331 332 332 334 334 334 333 332 330 329 328 328 330 330 329 328 327 324 325 328 330 329 329 328 324 318 315 312 312 312 306 300 300 301 302 303 303 304 305 304 303
341 341 340 341 344 345 345 344 343 343 342 342 342 342 342 341 340 341 339 337 337 336 335 335 334 335 337 337 338 338 338 337 336 335 333 331 331 332 334 334 334 334 333 332 332 332 333 334 334 334 334 332 331 329 328 327 328 329 329 329 328 325 323 326 328 328 327 327 324 320 316 314 315 315 309 302 300 302 304 304 303 304 306 306 304
341 341 339 340 343 345 345 345 343 342 342 342 342 342 341 341 341 341 339 338 337 336 335 335 335 335 336 336 336 336 337 336 335 335 333 331 331 332 333 334 334 333 332 332 332 333 333 333 333 334 333 333 332 330 329 329 328 329 329 329 329 328 325 324 324 326 325 324 323 320 318 318 320 320 315 309 304 304 306 306 305 305 306 306 304
342 342 341 341 342 342 342 342 340 339 341 343 342 342 341 341 341 341 339 338 337 336 335 334 334 335 335 336 336 336 336 335 335 335 334 332 331 332 334 335 334 333 333 332 332 333 333 333 333 333 333 333 332 331 331 331 330 330 329 329 328 328 327 324 322 322 321 321 320 318 318 319 322 322 320 317 312 308 308 308 309 306 306 307 304
343 343 342 342 341 337 336 336 335 338 341 342 342 342 341 341 341 341 339 338 337 336 335 334 333 334 335 336 337 337 336 335 334 335 334 333 332 333 334 335 334 333 333 332 332 332 332 333 333 333 333 333 332 332 332 331 330 329 328 328 327 327 327 324 321 319 317 318 318 318 317 318 321 322 320 319 317 313 310 310 311 307 306 307 304
344 344 343 343 341 336 332 331 334 339 341 341 342 342 341 341 341 340 339 338 338 336 335 334 333 334 334 336 337 337 336 336 335 335 335 333 332 333 334 334 334 334 333 332 333 332 332 332 333 333 333 332 332 332 330 328 327 326 326 326 325 325 325 323 319 317 316 316 317 317 315 315 318 320 320 319 318 316 313 311 311 308 306 308 304
345 345 344 344 342 338 334 335 340 342 342 342 342 342 341 341 341 340 339 339 338 337 335 334 334 334 334 335 336 336 336 336 336 335 334 333 332 333 334 334 333 333 333 333 332 333 333 333 333 334 333 332 331 329 327 326 325 324 323 323 322 322 321 318 316 314 314 314 314 313 312 311 312 315 317 318 317 316 313 310 310 307 307 308 304
344 345 345 344 344 342 341 342 343 343 343 342 342 342 341 341 341 340 340 339 338 337 336 335 334 334 334 335 335 335 335 336 335 334 333 333 332 332 333 333 333 334 333 333 333 333 333 333 333 333 333 332 331 328 326 325 324 323 321 320 318 317 316 314 313 312 311 311 310 308 307 308 308 311 315 314 313 314 312 310 308 307 308 308 304
343 344 345 345 344 344 343 343 343 342 342 342 342 342 342 341 341 340 340 339 338 337 337 336 335 335 334 334 333 333 334 335 334 333 332 333 332 332 332 333 333 333 333 333 333 333 333 333 333 333 333 332 330 328 325 323 323 323 320 317 315 313 312 312 311 310 308 307 306 304 304 305 307 309 311 309 308 310 311 309 307 306 308 307 304
342 343 344 345 344 344 344 343 343 343 342 342 342 342 342 341 341 341 340 339 338 338 337 337 336 336 334 333 332 332 333 334 334 332 331 333 333 332 332 332 332 332 332 333 333 333 333 333 333 333 333 331 329 327 323 320 322 321 317 314 313 311 310 309 307 307 306 305 304 303 303 304 305 306 305 304 304 306 307 308 307 306 308 307 304
340 342 343 344 344 343 343 343 343 343 343 342 342 342 342 341 341 340 340 339 339 338 338 337 337 336 335 334 331 331 332 333 333 332 331 333 333 333 333 332 332 332 332 332 333 333 333 333 333 333 332 330 328 326 321 319 320 319 314 313 312 310 307 306 305 304 304 304 303 303 303 303 303 303 302 302 302 302 303 305 306 306 307 307 304
338 342 343 343 343 343 343 343 344 343 343 343 342 342 342 341 341 340 340 339 339 339 338 338 338 337 337 336 333 331 331 332 332 332 332 334 334 334 333 332 332 332 332 333 333 333 333 333 333 332 330 329 327 324 322 321 321 317 313 313 311 309 306 304 303 303 303 303 303 302 302 302 302 301 301 301 301 301 301 302 304 305 306 305 304
336 340 342 343 343 344 343 343 343 343 343 343 342 342 342 341 341 340 340 340 339 339 339 338 338 338 338 337 334 331 331 331 332 333 333 335 334 334 333 332 332 332 332 332 333 333 333 333 332 330 328 328 326 324 323 323 320 316 313 311 308 306 304 303 302 302 302 302 302 302 302 301 301 301 301 300 300 300 300 300 302 304 305 305 304
336 340 342 343 343 343 343 343 343 343 342 343 342 342 341 341 340 340 339 339 339 339 339 339 339 339 339 338 336 332 331 331 332 334 335 335 335 334 333 333 332 332 332 331 332 332 332 332 331 328 327 326 324 324 324 322 318 315 311 308 305 304 302 302 302 302 302 301 301 301 301 301 301 300 300 300 300 300 300 300 300 301 304 305 305
337 340 341 343 343 343 343 343 343 343 342 342 342 341 341 340 340 339 339 339 339 339 339 339 339 339 339 338 336 333 332 332 333 335 336 336 335 334 334 333 333 332 332 331 331 331 331 332 330 328 327 326 324 324 324 320 315 313 309 306 305 303 302 301 301 301 301 301 301 300 300 300 300 300 300 300 300 300 299 300 299 300 301 303 304
336 341 341 342 343 343 343 343 343 343 343 342 342 341 341 341 340 340 340 340 340 340 339 339 339 339 339 338 336 333 332 332 333 335 336 336 335 335 334 334 333 332 331 331 330 329 330 331 329 327 327 326 324 323 321 317 313 311 307 304 303 302 301 301 301 301 301 300 300 300 300 300 300 300 300 300 300 299 299 299 299 299 300 302 304
334 339 341 341 342 343 343 343 343 343 343 342 342 341 341 341 340 340 340 340 340 340 339 339 339 339 339 337 335 333 332 333 335 336 337 336 336 335 335 334 333 331 331 329 328 328 330 331 328 326 327 326 323 321 318 314 311 309 305 302 301 301 301 301 301 300 300 300 300 300 300 300 300 300 300 299 299 299 299 299 299 299 299 300 301
333 337 340 341 342 343 343 343 343 342 342 342 341 341 341 341 341 340 340 340 340 340 339 339 340 340 339 337 334 332 332 333 336 337 337 336 336 336 335 334 332 331 330 329 327 328 331 330 327 326 327 325 322 320 316 312 310 307 305 303 301 301 301 301 300 300 300 300 300 300 300 299 299 299 299 299 299 299 299 299 299 299 299 298 299
332 334 337 340 341 342 342 343 343 342 342 341 341 341 341 341 341 341 341 340 340 340 339 339 340 340 339 336 334 332 331 333 336 337 337 337 337 336 335 333 332 331 330 328 328 330 331 329 327 327 326 324 322 319 315 312 309 307 304 302 301 301 300 300 300 300 300 300 300 300 299 299 299 299 299 298 299 298 298 298 298 298 298 298 298
333 333 336 338 339 342 342 342 342 342 341 341 341 341 341 341 341 340 340 340 339 339 339 339 340 340 339 336 334 332 331 333 335 335 336 337 337 336 335 333 332 331 329 328 329 331 331 328 327 327 326 323 321 319 315 312 308 306 303 302 301 300 300 300 300 300 300 300 300 299 299 299 299 298 298 298 298 298 298 298 298 298 298 298 298
334 334 336 339 340 341 342 342 342 341 341 341 340 341 340 340 340 340 340 339 339 339 339 339 340 340 339 337 335 333 333 334 334 335 336 337 337 336 334 333 331 330 329 330 331 331 330 328 327 327 325 323 321 318 314 311 308 305 303 301 300 300 300 300 299 299 299 299 299 299 299 299 298 298 298 298 298 298 298 298 298 298 298 298 298
334 335 336 339 340 341 341 341 342 341 341 341 340 340 340 340 340 340 340 339 339 339 339 339 340 340 339 337 336 335 334 334 335 336 337 337 336 335 334 332 331 330 330 330 330 329 328 327 327 326 324 322 319 316 313 310 307 304 302 301 300 300 299 299 299 299 299 299 299 299 298 298 298 298 298 298 298 298 298 298 297 297 297 297 297
333 336 337 339 340 340 341 341 341 341 341 340 340 340 340 340 340 340 340 339 339 339 339 339 340 340 339 337 335 335 335 336 336 337 337 336 335 335 333 331 330 330 331 330 328 328 327 327 326 325 323 321 318 315 313 310 306 304 302 301 300 300 299 299 299 298 298 298 298 298 298 298 297 297 297 297 297 298 297 297 297 297 297 297 297
332 336 337 339 339 340 341 341 341 341 340 340 340 339 340 340 340 340 339 339 339 339 339 339 339 340 339 337 334 334 336 337 337 337 336 334 334 334 332 331 329 329 330 329 328 327 327 326 326 325 323 321 318 315 313 310 306 303 301 300 300 299 299 299 298 298 298 298 298 298 298 297 297 297 297 297 297 297 297 297 297 297 297 297 297
332 336 338 338 339 340 340 341 341 340 340 340 340 340 340 340 340 340 340 339 339 339 339 339 339 339 339 337 334 334 335 336 336 336 335 333 333 333 332 330 329 329 329 329 328 327 327 326 326 325 323 320 318 316 313 309 306 303 301 300 300 299 299 299 298 298 298 298 298 298 297 297 297 297 297 297 297 297 297 297 297 297 297 296 297
334 337 338 338 340 340 340 341 340 340 340 339 340 340 340 341 340 340 340 339 339 339 339 339 339 339 338 337 336 334 334 335 335 335 333 332 333 333 331 330 330 328 328 328 328 327 326 327 326 325 323 320 318 316 313 309 305 302 301 300 300 299 299 299 299 298 298 298 298 298 298 297 297 297 297 297 297 297 297 296 297 297 297 297 297
336 337 338 339 339 339 340 340 340 340 340 339 339 340 340 340 340 340 339 339 339 339 339 339 339 339 338 337 337 336 335 334 333 332 331 332 333 333 331 331 331 329 328 328 328 327 326 327 327 325 323 321 320 317 313 308 304 302 301 301 300 300 299 299 299 299 299 298 298 298 298 298 297 297 297 297 297 297 297 297 297 297 297 297 297
337 338 338 339 340 340 340 340 340 340 339 339 339 340 340 340 340 339 338 338 339 339 339 339 339 339 338 338 338 336 335 334 332 332 332 332 333 332 332 332 331 329 328 328 327 326 327 327 326 325 323 321 319 317 312 307 304 303 301 301 301 300 300 300 300 300 299 299 299 299 298 298 298 298 298 297 298 298 298 298 297 297 297 297 297
338 339 339 339 339 339 339 339 339 339 339 339 339 340 340 340 339 338 338 338 338 338 338 338 338 338 338 338 337 336 335 334 332 332 333 334 333 332 332 333 331 329 329 328 326 326 326 327 326 325 324 322 319 316 311 308 306 303 302 301 301 301 300 300 300 300 300 299 299 299 299 299 298 298 298 298 298 299 298 298 298 297 298 298 297
338 338 339 339 340 339 339 339 339 339 339 339 339 339 340 340 339 338 337 337 338 338 338 338 338 339 339 338 336 335 335 334 332 333 333 333 332 332 333 332 329 329 329 328 327 326 327 326 326 325 323 322 319 315 312 310 307 305 303 302 301 301 301 301 301 301 300 299 299 299 299 299 298 298 299 299 298 298 298 298 298 297 298 298 298
339 338 338 339 339 339 340 339 339 339 339 339 340 339 339 339 338 337 337 337 338 337 338 338 338 338 338 337 336 336 335 334 333 333 333 333 333 334 333 331 329 330 329 328 327 327 327 326 325 324 323 322 319 316 314 311 308 306 305 303 302 301 301 302 302 301 300 299 299 300 299 299 298 298 298 298 298 298 298 298 298 297 297 297 297
337 338 338 339 339 339 340 339 339 340 339 340 340 339 338 338 338 337 337 337 337 337 337 337 337 337 337 336 336 336 335 334 334 334 334 334 334 334 332 330 330 330 329 328 327 327 326 326 325 324 323 322 320 317 314 311 309 307 306 304 303 302 302 302 301 301 300 300 299 299 299 298 298 298 298 298 298 298 298 298 297 297 297 297 297
334 337 338 338 339 339 339 339 339 339 339 339 339 338 337 337 337 337 337 337 337 337 337 337 337 337 337 337 337 335 333 334 334 334 335 335 335 333 331 331 331 330 329 328 327 326 326 326 325 325 324 323 321 318 314 311 309 308 307 305 304 304 303 302 302 302 302 301 300 299 299 298 298 298 298 298 299 298 297 298 298 297 297 297 297
332 338 338 338 339 339 339 339 339 339 339 339 338 337 337 337 337 337 337 338 337 337 337 336 336 337 337 337 336 335 333 334 335 334 335 335 335 332 330 331 331 330 329 328 327 326 326 326 326 325 324 324 322 319 315 312 309 309 308 307 306 305 304 304 303 303 303 302 302 300 299 298 298 297 297 298 298 298 297 298 298 297 297 297 296
328 336 339 339 338 339 339 339 339 339 338 338 338 337 337 337 337 337 337 337 337 336 336 336 336 336 337 337 337 336 334 334 335 336 335 335 334 332 330 330 330 329 329 328 326 326 326 326 326 325 324 323 321 319 316 313 311 310 309 309 308 306 305 305 304 304 304 304 303 301 299 298 298 297 297 297 297 297 297 297 297 297 297 297 296
325 331 336 338 338 338 338 338 339 339 338 338 338 337 337 337 337 337 337 337 336 336 335 335 335 336 337 337 337 336 334 334 335 336 336 334 333 332 330 330 330 329 328 327 326 326 326 326 326 325 324 323 322 319 317 314 312 311 310 310 309 307 307 306 306 305 305 304 304 302 300 299 298 298 298 298 298 298 297 298 298 298 298 297 296
325 327 333 337 338 338 338 338 339 339 338 338 338 337 337 337 337 337 336 336 336 335 335 335 335 336 337 337 337 337 335 334 334 336 335 334 332 332 330 330 330 329 328 327 326 326 327 326 326 325 324 324 322 320 317 315 313 312 311 310 309 309 308 307 307 306 305 305 304 303 301 300 299 299 299 299 299 299 298 298 299 298 298 298 297
326 325 331 337 338 337 338 338 338 339 338 338 338 338 337 337 337 336 336 335 335 335 335 335 335 335 337 338 337 337 336 334 334 335 334 333 332 332 331 330 329 329 328 327 326 327 327 326 325 325 325 324 321 319 317 315 313 312 311 311 310 310 309 308 308 307 306 306 305 303 302 301 300 300 301 301 301 301 300 299 298 298 298 298 297
326 327 331 336 338 338 338 338 338 339 339 338 338 337 337 337 337 336 336 336 335 335 335 335 335 335 336 336 336 335 335 334 335 335 334 333 332 332 331 330 329 329 328 327 326 326 326 325 324 325 325 323 319 317 316 315 313 312 311 311 310 310 309 309 308 308 307 307 306 304 302 302 302 301 302 303 303 302 301 299 298 299 299 299 299
327 328 331 334 336 337 338 339 338 338 339 339 338 337 337 337 337 337 336 336 335 335 335 336 336 336 335 334 334 334 335 335 335 335 333 333 332 331 331 330 329 328 327 327 326 326 326 325 324 324 324 323 320 316 315 314 313 312 311 311 310 310 309 309 309 309 308 307 306 304 303 302 303 303 303 304 304 303 302 300 301 301 302 301 300
329 329 330 332 334 336 338 338 337 337 338 339 338 337 337 337 337 337 336 335 335 336 336 336 336 335 334 333 334 335 336 335 334 334 333 332 331 331 330 329 328 327 327 327 326 326 325 325 324 324 323 323 320 317 315 315 314 313 312 311 310 310 310 309 309 309 308 307 306 305 304 303 304 304 304 304 304 303 302 301 303 303 303 302 300
331 331 331 332 333 335 337 337 337 337 337 338 339 338 338 338 337 337 336 336 335 335 336 336 335 335 334 334 335 335 335 334 332 332 332 331 330 330 329 328 328 327 327 327 326 326 325 325 324 323 323 323 321 318 316 315 314 313 312 311 310 310 310 310 309 309 308 306 305 305 305 304 304 305 304 303 303 304 303 302 303 304 303 301 298
332 332 332 332 332 333 336 337 337 336 336 337 338 338 337 336 336 336 336 335 335 335 336 336 336 335 335 334 334 334 334 333 331 330 330 331 330 329 328 328 328 327 327 326 326 325 325 324 324 323 323 323 321 319 317 316 315 314 313 312 311 311 310 310 310 309 308 306 305 305 305 305 305 305 304 303 303 305 305 303 303 304 303 301 299
331 331 332 332 332 332 334 336 337 335 334 335 336 336 336 335 335 335 335 335 335 335 335 336 336 335 335 335 335 335 334 332 331 331 331 331 330 329 328 328 328 327 327 326 326 325 325 325 325 325 324 323 320 319 318 318 317 316 314 313 312 311 311 310 310 309 308 306 304 304 304 305 305 305 303 302 303 305 306 305 304 304 303 302 301
331 331 332 333 333 332 333 335 335 334 333 333 334 335 335 335 335 334 334 334 334 334 335 336 336 335 335 334 334 334 333 331 331 331 331 331 330 329 328 328 328 328 327 327 327 326 326 326 326 325 324 323 321 319 319 319 317 316 315 314 312 312 311 310 309 308 307 305 303 303 303 303 304 303 302 302 304 305 305 305 305 304 304 303 302
331 331 332 333 333 333 333 333 333 332 332 333 333 334 334 335 335 334 333 333 333 334 335 335 335 335 334 333 332 332 332 331 331 332 331 330 329 328 327 327 327 326 326 326 327 326 326 325 325 324 323 321 320 319 318 317 315 314 313 312 312 311 310 309 307 306 305 304 303 302 302 302 302 302 303 303 305 306 305 305 305 304 304 304 303
330 331 332 332 332 332 332 332 332 331 332 333 333 333 333 333 334 334 334 333 333 334 335 335 335 335 334 332 331 331 331 331 331 331 330 329 328 327 326 326 325 325 324 325 325 325 325 324 323 322 320 319 318 317 316 315 313 312 310 310 309 308 307 306 305 303 303 302 302 302 301 301 301 301 301 302 304 305 305 305 305 305 304 304 304
Wind_Speed
51 50 50 50 50 48 47 47 47 45 40 38 37 36 35 33 31 29 30 30 30 33 35 35 34 33 33 32 31 30 27 26 24 23 22 21 21 20 19 18 17 16 15 15 15 15 14 15 16 17 17 17 17 18 17 17 17 16 16 16 16 16 16 16 16 15 14 13 11 10 10 9 8 6 5 5 4 3 1 1 2 3 3 1 1
46 43 43 44 46 45 45 45 47 47 43 41 40 39 38 36 33 30 30 31 32 33 36 37 36 35 35 34 32 30 28 27 25 24 24 23 22 20 19 18 18 17 16 16 16 16 15 16 17 18 18 18 18 19 18 18 17 17 17 17 17 17 17 18 18 16 15 13 11 10 10 10 9 7 6 6 5 3 3 2 2 4 4 3 3
40 41 43 43 45 46 46 47 48 47 44 44 43 41 40 39 35 31 30 32 33 33 35 37 36 35 34 33 31 29 29 27 25 24 24 24 23 20 19 19 18 18 17 17 17 17 16 16 17 18 18 17 18 19 19 18 19 18 18 18 17 18 18 19 19 17 16 14 11 10 11 10 10 9 8 7 5 4 4 4 5 6 5 4 4
39 42 44 43 43 45 47 49 49 47 45 46 45 44 43 42 38 34 32 33 34 35 35 36 35 34 32 30 28 28 29 28 26 26 26 25 24 21 20 19 19 19 18 18 18 17 17 17 18 18 17 16 16 17 18 19 19 20 19 18 18 18 20 21 20 19 18 15 11 9 10 10 10 9 9 8 6 6 6 7 9 9 7 6 5
44 44 45 45 45 46 48 50 49 48 47 47 48 47 45 43 40 35 33 34 35 35 36 36 35 34 31 30 29 30 30 30 29 29 28 27 26 23 21 20 19 20 19 18 18 18 18 19 19 18 16 15 15 16 17 19 20 20 20 18 18 17 19 21 21 20 19 17 13 10 9 9 10 10 10 10 9 8 8 8 9 8 6 6 5
51 50 50 49 49 50 50 50 50 49 49 49 49 48 47 45 41 37 35 36 36 36 37 36 36 36 35 34 34 34 34 33 32 31 29 28 27 23 21 21 21 21 20 19 18 19 19 19 20 18 17 16 15 15 17 18 20 20 20 19 18 17 17 19 21 20 19 18 17 15 12 10 9 11 12 11 11 11 9 9 8 6 5 4 4
50 52 54 54 53 52 52 52 51 50 50 50 50 49 48 45 41 39 37 37 38 38 38 38 37 38 37 36 36 35 35 35 32 30 28 27 26 24 23 22 22 23 21 20 19 19 19 20 20 19 18 17 16 15 16 17 18 19 19 19 19 18 17 19 20 19 19 19 18 19 17 12 9 10 12 11 12 13 12 10 9 7 6 4 4
47 49 52 55 56 55 54 54 52 51 51 51 52 51 50 47 43 40 39 38 39 39 39 39 39 39 38 37 36 35 34 33 31 29 27 26 26 25 24 24 24 24 22 21 21 20 20 21 21 20 19 18 16 16 16 17 18 18 19 19 20 20 19 19 19 19 19 18 18 18 18 16 12 9 10 10 10 12 14 13 11 9 7 5 5
46 49 51 54 57 58 56 53 51 52 52 52 52 52 51 49 45 41 40 40 39 39 39 39 40 40 39 38 37 35 33 32 31 29 27 27 27 26 26 25 25 25 23 22 21 21 21 21 21 21 20 18 17 17 17 17 18 18 18 18 19 20 20 20 20 20 19 17 17 18 18 18 16 12 10 11 11 12 14 15 13 11 8 7 6
45 47 51 53 57 58 56 54 54 54 54 53 53 53 52 50 46 43 42 41 40 39 39 39 40 40 39 39 38 36 34 33 32 30 28 28 28 28 27 26 26 25 23 22 22 22 21 21 22 22 19 17 17 16 16 17 17 17 16 16 18 19 20 20 20 19 19 18 18 18 18 18 17 15 14 14 15 14 13 13 13 11 9 9 8
43 44 47 50 54 58 58 57 56 55 54 53 52 52 52 51 48 45 43 41 40 39 39 39 40 40 40 40 39 37 35 35 34 32 30 29 29 29 28 27 27 25 24 23 23 22 22 22 23 21 19 17 15 14 14 15 16 16 15 15 17 18 19 20 20 19 19 19 19 18 18 17 17 15 14 14 15 16 13 11 13 12 9 10 11
44 44 45 46 49 54 56 55 52 52 52 53 52 52 52 52 49 46 44 43 41 39 39 39 39 40 41 41 40 38 36 36 35 34 32 31 30 30 29 29 27 26 25 24 24 23 23 23 23 21 18 16 15 14 14 14 15 15 15 16 17 18 19 20 20 19 19 19 18 17 16 16 16 15 14 14 14 14 12 10 13 14 11 12 13
45 46 46 47 49 52 53 51 48 49 52 53 52 52 53 52 50 47 46 44 41 40 39 38 38 40 41 40 40 39 37 36 35 34 32 31 31 30 30 29 28 27 26 25 25 24 23 23 22 21 18 16 16 15 14 14 14 15 16 16 17 17 19 20 19 19 18 17 15 15 15 15 14 13 13 13 13 13 12 11 14 15 13 15 15
45 47 48 50 52 54 53 52 51 51 53 54 53 52 53 52 50 48 47 44 42 40 39 38 38 39 40 39 39 39 38 36 35 34 33 31 31 31 30 30 28 27 25 24 24 23 23 22 21 19 18 16 16 15 15 15 14 15 16 16 17 17 18 19 18 18 17 15 14 14 13 13 13 12 12 12 12 12 12 12 15 16 16 17 16
44 47 50 52 55 57 56 54 54 54 54 54 53 53 54 53 51 49 47 44 42 41 40 38 38 38 38 37 38 39 38 36 34 34 33 32 32 32 31 30 28 26 24 23 22 22 21 21 20 19 17 16 15 14 16 16 16 16 16 16 16 17 17 17 16 16 15 15 14 13 13 12 12 12 11 11 11 11 11 12 14 15 17 19 17
45 47 50 52 55 57 58 56 55 55 54 53 53 54 54 53 52 50 47 44 42 41 40 39 38 37 36 36 37 38 37 36 34 34 33 33 32 32 31 29 27 25 23 22 22 22 21 20 19 18 17 16 15 14 15 17 17 16 16 16 16 15 16 16 15 15 15 14 13 13 12 12 11 11 10 10 10 10 11 12 13 14 15 18 19
48 49 50 52 54 56 58 58 57 56 55 54 55 56 56 55 53 49 46 44 42 41 40 40 38 37 35 35 37 38 37 36 34 33 33 33 33 32 31 29 26 24 23 22 23 22 21 21 19 18 16 15 15 15 16 17 18 17 16 16 15 15 15 15 15 15 15 14 13 13 12 11 11 10 10 10 10 10 11 12 13 14 15 16 18
48 50 51 54 55 57 57 58 58 58 58 58 58 57 56 55 52 48 46 45 43 42 41 40 39 37 36 36 37 37 37 36 34 33 32 33 33 32 31 29 25 24 23 23 23 23 22 21 20 18 16 14 15 16 16 18 18 18 17 16 15 15 15 15 15 15 14 14 13 12 12 11 10 10 10 10 10 10 10 11 12 13 15 15 16
43 48 52 55 57 58 59 58 58 58 58 58 57 56 56 55 51 46 45 44 43 42 43 41 39 36 36 37 37 37 37 36 34 33 32 33 33 32 31 29 25 24 23 23 23 23 23 22 20 20 17 15 17 17 17 19 19 18 18 17 15 15 15 15 15 15 14 13 13 12 11 11 10 10 10 10 10 10 10 10 10 11 14 15 15
41 46 50 54 57 59 60 60 58 57 57 56 55 54 54 54 51 47 46 46 44 43 44 42 39 37 36 37 37 37 37 36 34 33 33 33 32 32 31 29 26 24 24 24 23 23 23 22 21 20 18 16 17 18 18 19 19 18 18 17 15 15 15 15 15 15 14 13 12 12 11 11 11 11 11 11 11 10 10 9 9 10 12 13 14
41 46 49 53 56 57 59 59 57 57 57 55 55 54 54 54 51 48 48 47 46 45 44 43 39 37 37 37 38 38 37 36 34 33 33 33 32 32 30 28 26 25 24 24 24 24 23 21 20 19 17 16 16 17 18 19 19 18 18 16 15 15 15 15 16 15 15 14 12 12 11 12 12 11 11 11 11 11 10 9 9 9 9 11 12
42 47 50 52 55 56 56 56 55 55 53 52 53 53 53 53 51 49 49 48 47 46 45 43 40 38 38 38 38 38 37 36 34 33 33 33 33 32 30 28 27 25 25 24 24 23 22 20 19 18 17 17 16 16 17 18 18 18 16 15 15 16 16 17 16 16 15 14 13 12 12 12 12 12 11 11 11 11 10 9 9 9 8 8 9
45 48 52 53 55 56 56 56 55 54 53 52 52 52 52 53 51 50 50 48 47 46 45 44 41 39 39 38 38 38 37 36 34 34 33 33 33 32 30 29 27 26 25 24 24 23 22 20 19 18 18 17 17 17 17 17 17 17 15 15 15 16 17 17 16 15 15 14 13 13 13 13 12 12 12 12 11 11 10 9 8 8 7 6 7
44 48 53 54 55 56 55 55 54 52 52 52 52 52 52 52 50 50 50 48 47 46 45 44 42 40 39 38 38 37 36 35 34 33 34 34 34 32 30 29 27 26 25 24 24 23 22 21 19 18 18 18 18 18 18 18 17 16 15 15 16 17 17 16 15 15 15 14 14 13 13 13 13 12 12 12 11 11 10 8 7 7 7 6 6
42 45 50 50 51 52 52 52 52 51 52 52 52 52 51 50 50 49 49 47 46 45 45 44 42 41 39 37 36 36 35 34 32 33 34 36 34 32 30 28 27 25 25 24 24 23 22 21 20 19 18 18 18 18 17 17 17 16 15 15 16 17 17 16 15 15 15 14 14 13 13 13 13 12 13 12 11 10 9 8 7 7 7 7 6
43 45 46 46 46 48 50 51 52 52 53 53 53 52 51 50 49 49 48 47 45 45 45 44 42 41 39 36 35 36 35 34 33 34 35 35 33 31 30 28 26 25 25 24 23 22 21 21 20 19 18 18 18 17 17 17 16 16 16 16 16 17 17 16 16 16 15 14 14 14 14 14 13 12 12 12 11 10 9 8 7 6 7 6 6
42 43 43 45 45 47 50 52 53 53 53 53 53 52 51 50 49 48 47 46 46 45 44 43 42 41 39 36 35 35 35 34 34 35 35 33 33 32 29 27 25 25 24 24 22 21 21 20 19 18 18 18 17 16 16 17 17 17 16 16 17 17 17 17 17 16 16 15 15 14 14 14 13 13 12 12 10 9 9 8 7 6 6 6 6
38 40 41 45 46 47 50 51 52 53 53 53 53 52 52 51 50 49 47 46 46 45 44 43 42 41 40 37 34 34 34 35 35 35 34 33 33 31 28 26 25 24 24 23 21 21 21 20 19 18 18 17 17 17 17 18 17 17 16 16 17 17 18 18 18 17 17 17 16 15 15 14 13 12 11 10 9 8 7 8 7 6 6 6 6
36 39 41 44 46 48 50 51 51 51 51 51 51 50 50 49 49 48 47 47 47 46 45 44 43 43 41 37 34 33 34 35 36 35 35 34 32 30 27 26 25 23 23 23 22 21 20 19 19 18 18 17 17 17 17 17 17 17 16 16 17 18 18 18 19 19 18 17 17 16 15 14 13 12 11 10 9 8 8 8 7 6 6 6 6
34 38 42 43 44 47 49 50 50 50 50 50 50 51 50 49 48 47 46 47 46 46 46 45 44 43 41 39 36 33 32 34 36 35 35 34 32 30 27 26 25 23 22 23 23 21 20 20 19 18 18 18 18 18 17 16 16 16 16 16 17 18 19 19 19 19 19 18 17 16 15 13 12 11 9 8 7 7 7 7 7 7 7 6 7
31 36 41 41 42 44 46 48 49 50 51 51 51 52 52 50 49 47 47 47 46 46 46 45 45 44 41 40 38 33 31 33 35 34 34 33 32 30 28 27 26 23 22 23 23 22 21 20 18 18 18 18 18 17 16 16 16 16 16 16 16 18 19 20 19 19 19 18 17 17 15 13 12 10 9 9 8 7 7 7 7 7 7 7 8
26 33 38 39 41 43 45 47 49 50 52 52 53 53 52 51 50 49 48 47 46 47 46 46 45 43 41 41 38 34 33 33 34 33 34 34 32 31 30 28 27 24 23 24 24 22 21 20 18 17 18 18 17 16 15 15 15 16 16 16 16 18 19 20 20 19 19 18 18 17 15 14 13 13 12 13 12 10 9 9 8 8 7 8 9
20 28 34 39 42 45 48 50 51 52 53 54 54 53 53 53 52 50 48 46 47 47 46 45 44 43 43 42 38 36 34 34 34 33 34 34 32 32 32 30 27 25 25 25 24 22 21 21 18 17 17 17 16 15 14 14 15 15 16 16 16 18 19 20 20 20 19 19 19 17 16 16 15 15 15 14 13 11 10 10 10 9 9 9 10
16 21 28 36 41 45 49 51 52 54 54 53 53 53 54 53 51 49 47 47 47 46 46 45 44 43 43 40 37 37 36 34 34 34 34 33 32 34 33 29 26 26 27 26 24 22 22 22 19 17 17 16 16 15 14 14 15 15 16 16 17 18 19 20 20 20 20 20 20 19 18 17 16 16 16 15 14 12 11 11 11 11 11 11 12
17 20 23 29 35 39 43 46 49 50 49 50 51 51 50 49 48 48 47 46 46 46 45 44 44 44 42 39 39 39 36 34 34 36 35 33 33 34 32 28 26 27 27 27 25 24 24 22 18 16 15 15 14 14 14 15 15 15 16 17 17 18 19 19 20 20 20 20 21 20 17 16 16 16 15 14 13 13 12 12 12 12 12 13 12
18 23 24 28 33 37 41 44 46 47 47 49 50 49 47 46 46 47 46 46 46 45 45 44 44 43 42 41 40 38 35 35 35 36 37 36 35 33 29 28 28 28 28 27 25 25 25 22 17 15 13 13 13 14 15 15 15 15 16 16 16 18 19 20 20 21 20 20 20 19 17 15 15 15 14 14 14 14 14 13 14 13 13 13 13
18 24 27 27 30 35 40 43 43 45 48 50 49 47 46 45 45 45 45 45 45 45 45 45 44 43 43 43 40 36 34 35 36 36 37 38 36 31 28 29 30 29 30 28 25 25 25 21 16 13 11 11 13 15 15 16 16 15 15 15 16 17 19 20 20 20 20 19 19 18 17 16 15 15 15 15 15 15 15 14 14 14 14 14 13
15 23 29 30 32 35 39 41 41 43 46 48 47 46 45 44 45 45 45 45 45 45 45 45 44 44 45 44 40 36 35 37 38 38 37 37 35 29 27 29 29 30 30 27 24 25 25 21 16 13 11 11 13 14 15 16 16 16 16 15 16 17 19 19 19 19 19 19 18 17 17 17 16 15 15 16 16 17 16 15 15 16 15 14 13
15 20 27 32 35 36 37 38 40 41 42 43 44 44 44 45 45 46 45 46 46 46 46 45 45 45 44 44 41 36 33 35 39 40 37 34 31 28 27 27 29 31 29 23 22 26 25 21 18 16 13 13 13 14 15 16 17 17 17 16 16 18 20 19 19 19 19 18 17 17 17 17 16 16 16 16 18 17 16 15 16 17 15 13 12
20 20 24 28 32 34 35 36 39 40 41 42 42 43 44 45 45 46 46 47 46 46 45 44 44 44 44 43 40 37 35 35 38 40 37 31 27 26 27 27 29 33 28 21 22 27 25 22 22 19 15 13 14 15 15 16 17 17 17 17 17 19 20 19 19 19 19 18 17 17 17 17 17 17 17 17 17 16 15 16 17 17 15 12 11
24 22 22 25 29 33 37 39 41 42 42 42 41 42 43 44 44 45 46 46 45 44 43 43 43 43 43 42 41 40 39 35 33 35 34 28 25 26 25 26 30 33 28 20 21 27 27 25 25 21 16 15 15 16 16 17 17 17 17 18 19 19 19 19 19 20 19 18 17 16 17 17 17 18 17 16 16 15 15 17 18 17 14 11 10
24 23 22 26 29 34 38 40 41 41 42 42 43 44 45 45 45 46 46 44 42 41 41 42 42 41 41 42 42 39 36 32 32 36 34 29 27 26 25 25 28 31 27 20 20 25 29 28 26 22 19 19 19 18 17 17 18 18 18 18 19 19 19 19 20 21 20 19 18 16 16 17 17 17 16 15 15 15 16 17 17 15 13 11 10
22 22 23 27 30 34 38 39 40 41 42 43 44 44 44 45 46 45 43 41 40 40 41 41 41 39 38 37 35 33 33 34 37 39 35 29 27 27 26 25 26 30 29 23 20 24 28 29 27 24 23 22 22 21 20 18 18 18 18 19 19 19 19 20 22 22 20 19 18 17 16 16 17 17 16 16 16 16 17 17 15 13 13 12 12
21 25 27 28 30 33 36 38 39 41 42 44 45 46 46 46 47 44 41 39 39 39 39 40 39 37 35 34 34 35 37 38 39 39 36 30 25 24 25 25 27 31 29 23 21 24 27 29 29 28 26 24 23 23 21 19 18 19 19 20 20 20 21 22 23 22 20 19 20 19 17 16 17 18 18 17 16 16 16 15 13 11 12 13 13
17 25 30 30 30 32 34 36 37 38 41 44 46 47 49 49 47 43 40 39 38 38 38 39 38 36 34 35 38 40 41 42 41 39 36 29 23 23 24 24 26 29 27 22 21 24 26 28 31 30 27 25 24 24 22 20 20 20 20 21 22 22 23 23 23 22 21 20 21 21 19 18 18 20 19 18 17 16 15 15 13 12 13 14 14
13 19 25 29 31 32 33 34 34 35 41 46 48 48 50 49 46 43 41 39 37 37 38 38 37 36 36 38 41 43 43 42 39 36 33 28 23 21 21 20 22 25 26 24 23 24 26 28 30 29 26 25 25 25 24 22 21 21 21 23 24 24 24 23 23 22 21 21 22 23 23 22 21 22 23 22 20 17 15 15 15 14 14 14 13
12 13 17 22 28 32 34 33 32 34 39 43 44 45 44 41 40 39 38 36 35 35 36 38 37 35 35 37 40 40 40 38 35 32 33 30 25 21 19 19 20 24 26 26 25 26 27 27 26 26 26 26 26 26 23 21 21 22 22 24 25 25 25 24 24 23 22 22 23 24 25 26 26 26 26 25 23 20 18 17 16 16 15 14 13
12 13 15 19 23 28 33 32 31 34 36 35 36 39 38 35 34 33 31 32 33 33 35 37 37 34 34 36 37 37 36 34 32 31 31 29 25 20 18 16 17 20 23 25 26 26 24 21 20 22 25 27 28 26 22 20 20 20 21 23 24 25 25 25 25 24 23 23 24 25 26 27 28 28 27 26 25 23 21 19 18 17 17 16 15
12 14 16 18 20 26 30 30 28 29 31 32 34 39 39 37 34 31 30 31 33 32 33 35 35 34 36 38 36 34 31 30 30 30 30 29 26 20 16 14 14 16 18 20 20 19 16 16 18 20 22 24 23 20 17 15 15 16 18 21 22 22 22 22 22 23 23 24 24 25 27 28 28 27 26 25 25 23 22 21 20 19 19 19 18
11 13 15 16 17 21 25 26 24 24 25 28 32 36 37 36 34 32 30 32 33 33 34 36 35 34 36 36 33 31 30 29 28 28 29 30 29 23 17 14 15 16 17 18 18 16 15 16 18 18 17 16 13 11 10 10 11 13 15 17 18 19 20 20 20 20 21 23 24 25 26 27 28 28 28 27 25 24 23 23 22 20 20 21 21
8 11 14 15 16 17 19 22 23 22 23 25 28 31 32 32 32 31 30 32 35 34 34 35 36 35 35 32 30 29 29 27 27 27 28 30 28 23 18 16 16 16 17 17 18 18 17 17 17 16 13 11 9 8 9 10 12 13 13 13 15 16 17 18 18 19 21 22 24 25 25 26 27 29 30 30 28 27 25 25 23 22 21 22 23
Wind_Direction
209 207 207 207 208 209 209 209 208 207 205 203 202 202 202 200 199 202 202 201 198 197 197 197 197 197 200 202 205 208 208 209 210 214 218 218 218 218 219 219 220 225 227 226 224 219 216 214 214 215 215 216 215 214 214 215 217 219 220 223 225 220 213 214 219 223 226 222 221 227 237 241 237 236 232 223 221 219 180 102 45 44 44 36 20
210 207 208 207 208 208 208 208 207 207 205 203 202 202 202 202 202 203 203 202 201 201 200 200 200 200 201 203 206 208 209 211 212 216 220 218 217 217 216 218 219 222 225 224 223 219 215 215 215 216 216 215 214 214 217 222 224 225 223 222 225 229 226 223 220 221 227 231 232 231 229 229 226 219 213 210 203 185 159 131 93 81 91 111 98
207 206 207 207 208 208 208 208 208 208 207 204 203 201 202 202 203 205 206 206 204 204 204 203 203 204 205 206 207 209 211 214 216 219 221 218 217 218 217 221 222 222 224 222 222 221 220 220 217 216 216 217 220 222 224 228 229 229 229 229 229 229 228 227 225 225 226 229 232 232 228 223 219 214 210 211 201 175 154 128 111 104 114 120 98
204 203 205 206 207 208 207 208 208 207 207 205 204 202 202 202 202 205 208 209 207 205 206 205 204 205 208 210 212 213 215 217 220 222 222 219 217 218 219 223 225 225 225 222 220 221 223 223 221 219 221 224 228 232 235 235 234 232 233 236 238 234 227 225 226 227 229 231 229 228 223 217 217 215 207 207 195 170 149 129 120 113 112 108 93
201 201 203 204 205 207 208 209 207 207 208 209 207 204 203 202 202 205 208 210 208 206 206 205 203 204 206 209 213 216 217 219 221 220 220 218 218 217 219 224 227 228 228 224 220 219 221 224 225 226 228 233 236 237 239 240 237 237 240 242 244 243 234 229 229 229 231 235 236 235 226 217 219 215 202 200 193 173 156 145 134 123 114 102 91
202 201 202 203 205 206 208 208 208 208 211 212 210 207 205 203 201 204 208 209 208 207 207 206 203 204 205 206 210 214 216 219 221 220 218 218 217 217 220 225 228 229 230 228 224 221 222 224 227 229 232 238 242 241 242 242 241 243 248 250 250 247 240 235 236 236 236 236 237 238 236 232 228 213 200 195 191 185 176 166 158 150 141 119 102
202 201 201 202 203 205 206 207 208 211 213 213 211 209 207 204 202 205 207 207 207 207 207 206 205 205 207 208 210 213 216 218 221 222 221 220 219 219 221 224 226 229 230 229 229 227 226 227 229 231 234 237 242 244 246 247 249 251 256 258 254 247 242 239 241 242 242 242 242 240 236 235 231 216 209 204 199 200 198 189 183 179 170 150 128
200 200 199 200 202 204 205 206 208 212 213 212 210 210 208 206 204 206 207 206 206 206 207 207 207 207 208 210 214 216 219 221 222 223 223 223 223 222 222 223 226 228 229 228 230 231 231 232 234 236 239 242 245 248 251 253 255 258 261 260 253 246 244 244 244 246 248 249 249 245 238 232 229 222 221 225 225 217 208 202 198 189 175 161 149
202 200 199 199 201 203 205 206 207 210 212 213 212 211 208 206 205 206 206 206 206 207 207 208 209 209 209 211 214 217 221 224 225 225 225 225 225 223 222 224 226 227 227 228 230 231 233 235 237 240 242 246 251 255 259 263 264 264 262 258 251 246 246 246 246 248 252 254 252 250 244 235 228 223 220 224 232 230 218 212 208 197 182 174 171
204 202 200 200 201 203 205 206 206 208 211 213 212 210 208 206 205 206 206 206 206 207 207 208 210 211 211 213 214 216 220 224 225 226 226 226 224 223 223 224 226 226 226 228 230 231 233 236 239 240 243 249 256 261 265 270 273 269 261 253 249 247 248 249 249 251 252 252 251 250 246 239 233 230 229 228 230 231 228 222 212 201 187 183 178
203 202 201 201 201 203 205 206 205 206 209 210 210 209 208 206 205 206 207 207 207 206 207 208 211 213 214 215 216 217 220 222 223 224 225 225 223 222 223 225 226 226 226 228 229 230 233 236 239 241 243 249 256 262 265 270 274 269 256 247 245 245 247 250 251 252 252 251 252 251 250 248 246 245 247 246 240 234 232 223 205 190 177 182 181
200 200 201 201 201 203 204 204 203 204 206 208 209 209 208 206 205 206 207 208 207 206 206 208 211 214 216 218 219 220 222 222 223 223 224 225 223 222 223 225 226 225 225 227 228 230 232 234 237 240 244 249 255 259 261 267 271 263 251 245 242 243 245 247 249 251 252 253 255 256 255 253 252 251 252 254 249 240 238 224 200 185 174 179 185
199 199 199 200 201 203 203 203 203 204 206 209 209 209 207 206 206 207 208 208 208 207 206 208 211 215 218 219 221 222 223 223 224 225 226 226 226 225 225 227 228 226 225 226 229 231 233 235 237 241 247 254 258 259 258 261 264 255 246 242 240 241 244 246 247 249 250 251 253 254 252 249 248 248 249 252 249 242 238 221 199 190 185 185 189
199 198 199 199 201 202 203 203 203 205 208 209 209 208 207 206 206 207 209 209 208 208 207 208 212 216 219 221 222 223 223 224 225 226 227 229 228 229 231 232 233 233 231 230 231 233 235 237 240 244 251 257 256 255 253 255 257 250 241 240 239 239 243 243 244 246 245 244 245 245 244 245 246 247 249 252 251 246 242 224 201 190 189 192 194
200 199 200 201 201 202 203 203 204 206 208 209 208 208 207 206 206 208 208 209 209 209 208 209 212 216 219 222 224 224 224 225 226 227 229 231 231 231 233 234 236 237 237 236 236 237 238 241 246 251 256 257 251 251 254 255 254 246 239 240 240 239 240 242 243 244 242 241 242 240 239 242 245 247 247 247 246 244 241 231 216 199 187 188 195
201 200 200 202 202 203 203 203 204 206 207 208 208 207 207 207 207 208 209 210 211 210 209 210 212 215 218 221 224 224 224 225 224 226 229 232 233 234 234 235 237 238 238 238 240 241 244 248 253 256 257 253 245 245 252 255 252 247 243 243 244 243 243 244 244 243 240 240 241 240 240 242 244 244 241 238 236 234 232 231 231 224 205 192 195
200 200 200 201 202 203 203 203 204 205 206 208 208 208 208 207 206 207 209 211 212 212 211 211 213 216 218 221 223 223 223 224 223 225 228 232 233 235 236 235 236 237 238 240 242 244 248 252 253 253 253 251 245 243 247 249 247 245 244 243 244 245 245 244 242 241 240 240 240 239 239 240 241 239 235 233 231 229 229 229 228 232 230 217 207
199 199 200 201 202 204 204 204 205 207 208 209 210 209 208 207 206 206 209 211 213 213 212 212 213 216 218 221 222 223 223 224 224 225 229 231 232 234 235 234 234 237 239 241 243 245 248 251 250 248 248 247 247 246 244 244 243 242 240 238 239 242 243 241 239 238 238 239 237 236 237 238 238 236 235 236 234 230 228 228 226 226 230 232 230
198 197 198 200 202 204 205 205 206 207 208 209 209 207 206 206 207 208 211 212 213 212 212 212 214 216 220 221 222 222 223 224 224 226 229 231 233 234 234 233 233 236 239 241 244 246 249 249 247 247 244 237 240 243 239 238 239 238 237 233 234 238 237 237 238 236 235 235 234 236 238 239 239 238 238 239 238 234 229 227 226 224 225 228 233
198 196 197 199 202 204 205 205 206 206 207 208 206 205 205 205 207 209 212 213 212 213 213 212 214 217 220 221 221 222 222 223 225 226 228 231 233 235 235 233 232 235 238 241 244 248 250 248 246 248 245 236 235 234 231 233 234 234 233 231 232 235 234 235 235 234 233 232 233 236 238 240 241 240 241 242 241 238 233 229 223 221 224 225 227
198 197 197 200 202 204 205 205 205 206 206 206 204 204 204 205 207 209 211 212 212 213 213 213 214 216 220 220 220 220 221 223 225 226 229 231 233 235 236 235 235 236 238 241 246 249 248 245 245 248 250 244 238 232 230 232 232 231 231 230 231 234 234 235 233 232 233 232 232 235 236 239 242 241 242 243 244 243 238 235 231 224 222 223 223
198 197 198 200 201 202 203 203 204 204 204 203 202 203 204 205 206 208 210 213 213 213 213 214 214 216 220 221 220 220 221 222 224 226 229 231 234 234 235 235 236 237 239 244 248 248 244 242 243 247 250 248 243 236 233 234 233 232 231 231 233 234 235 235 233 232 233 234 234 235 236 239 241 241 242 242 244 245 243 242 241 237 231 224 221
198 199 200 201 201 201 201 201 202 202 202 202 201 201 203 205 206 208 210 212 213 213 213 214 214 216 219 220 220 219 220 221 223 226 229 231 233 233 233 234 235 236 240 245 247 244 241 240 242 246 247 245 242 238 236 237 235 234 234 234 235 236 236 236 236 235 235 237 238 237 239 241 240 239 240 241 244 246 247 248 248 245 237 228 221
200 199 200 201 201 200 199 199 200 201 201 201 201 201 202 203 205 207 209 212 212 212 213 213 214 217 219 219 219 220 221 222 223 225 228 230 231 231 233 233 234 235 240 243 242 239 238 238 241 244 243 239 237 237 237 238 236 235 235 236 237 238 237 237 237 238 239 241 243 242 241 240 239 238 238 240 244 247 250 253 254 246 230 218 214
204 202 200 200 198 197 197 197 198 199 199 199 200 200 200 201 203 206 208 210 211 212 212 213 214 216 218 219 219 220 222 222 224 227 229 229 229 231 232 231 231 234 238 239 237 235 235 236 238 240 240 237 235 236 238 238 237 236 235 236 238 238 238 237 236 238 240 242 244 243 242 241 239 239 240 242 244 249 254 257 253 240 224 217 215
208 205 201 198 196 195 195 196 197 198 199 199 199 199 199 200 202 205 207 208 210 212 212 213 214 215 217 218 218 220 222 224 226 227 227 228 230 231 231 229 230 233 235 235 234 233 234 234 236 237 237 235 233 235 238 238 239 238 236 235 236 235 235 237 237 237 238 239 241 241 240 240 239 241 245 247 249 253 257 254 243 228 224 225 222
210 206 201 197 195 195 195 195 197 198 198 199 198 198 198 199 201 204 206 207 209 210 211 213 214 214 216 218 219 220 221 222 223 224 227 231 233 232 228 227 229 231 233 233 230 229 230 231 234 237 234 231 231 233 236 237 238 238 237 236 235 232 232 234 236 237 236 235 236 238 238 238 238 241 246 249 250 252 250 243 233 224 228 233 230
211 205 201 197 194 194 194 195 196 197 198 198 198 198 198 198 200 202 204 206 208 209 211 213 213 213 216 219 218 216 218 221 224 226 230 233 233 230 225 225 229 231 231 230 227 225 227 229 232 235 233 229 229 232 234 236 236 236 237 237 236 234 232 232 234 233 233 232 232 235 237 236 236 238 241 241 242 240 233 232 232 231 236 240 238
208 203 201 197 194 193 193 194 195 196 196 196 196 197 197 198 199 201 202 205 208 209 210 212 213 214 217 220 219 216 217 222 224 227 230 231 231 228 223 225 231 234 231 228 225 223 226 229 232 233 232 229 229 231 232 235 237 238 238 237 236 235 234 233 233 232 231 231 231 233 234 233 232 231 230 231 231 227 224 228 234 240 246 246 246
205 200 200 198 195 193 192 193 194 194 195 195 196 197 197 197 198 199 201 204 207 208 208 211 213 214 217 220 220 219 220 222 223 225 228 229 229 225 222 225 232 235 232 228 225 223 224 227 231 232 232 230 230 232 233 234 237 240 241 240 237 235 234 234 234 234 234 232 230 231 230 226 223 220 220 223 223 225 230 237 243 248 253 255 255
204 199 198 197 195 193 192 192 193 194 195 196 197 197 197 198 198 198 201 204 206 207 208 211 212 215 218 218 217 219 222 222 222 224 226 227 226 224 223 226 230 234 232 228 227 226 225 225 229 231 233 233 233 234 233 233 235 237 239 239 237 236 235 234 234 235 236 235 232 229 222 217 215 215 221 223 218 225 242 252 256 254 254 257 256
204 198 195 194 194 193 193 193 194 195 196 197 198 197 197 198 198 200 202 203 205 207 209 211 213 215 216 215 216 220 222 220 219 221 223 225 225 225 225 224 226 232 231 227 228 229 227 227 229 232 233 234 235 236 234 232 233 234 235 234 236 237 236 235 235 235 236 236 233 229 226 227 228 230 234 231 226 232 242 245 245 242 245 252 252
207 199 196 195 195 196 196 196 196 197 199 199 198 197 199 200 201 201 202 202 203 206 208 210 212 213 213 214 218 220 218 217 217 219 222 223 224 226 224 222 225 230 229 228 231 232 228 227 230 233 235 235 234 232 230 229 230 231 231 230 232 235 237 238 237 235 236 235 234 236 241 244 240 236 237 236 234 236 232 227 227 228 233 242 247
215 203 202 200 199 200 199 198 199 200 200 200 200 201 202 202 201 201 201 202 202 205 207 209 210 212 213 216 219 217 214 214 216 218 220 223 226 226 222 222 227 229 226 227 232 233 228 226 229 233 234 235 233 230 229 229 228 229 229 228 230 233 236 238 238 238 239 240 243 249 252 247 241 235 235 236 234 231 225 221 224 230 234 239 244
219 208 208 208 205 204 201 200 200 200 198 198 199 202 200 198 198 200 201 202 202 203 206 207 209 211 213 217 216 213 212 213 215 217 219 223 225 222 220 224 228 227 225 228 234 236 229 225 229 233 233 234 233 231 230 229 227 228 228 227 229 233 234 236 239 243 244 244 249 254 251 242 237 236 235 233 230 229 228 227 229 233 238 244 249
234 217 214 214 212 209 206 204 202 198 197 199 200 200 198 197 197 199 200 200 200 202 204 206 208 210 213 214 212 210 211 213 214 217 220 222 221 219 222 228 226 223 224 229 236 238 230 225 229 233 236 239 236 232 231 228 226 229 229 227 230 233 234 236 239 243 246 246 250 253 247 237 235 237 235 231 229 230 231 231 234 239 243 249 255
257 233 225 222 220 216 211 207 204 200 199 201 200 199 198 197 197 198 199 199 200 202 204 206 208 210 211 211 210 210 212 214 214 216 219 220 218 219 226 227 222 221 223 229 238 236 226 224 231 236 243 248 241 235 232 228 226 229 230 229 232 233 235 239 241 244 249 252 255 255 247 237 236 236 231 228 230 234 235 237 241 245 248 252 257
257 232 227 225 220 217 214 210 206 203 203 202 200 199 198 197 198 198 199 200 201 203 204 206 208 210 210 210 210 210 212 214 214 216 218 218 218 221 225 223 223 224 225 231 239 232 223 225 232 237 247 253 246 241 237 231 229 231 233 233 236 237 238 240 242 246 252 256 258 255 246 239 236 231 224 227 235 240 243 246 248 249 251 255 258
254 226 224 224 217 212 213 212 208 205 204 203 201 200 198 198 199 200 199 200 202 204 206 208 209 210 211 211 211 210 212 216 217 215 216 218 220 223 223 222 225 224 224 232 237 228 224 228 230 231 238 245 246 243 240 235 233 236 240 240 239 240 241 242 244 249 252 255 257 253 245 241 234 223 222 232 240 244 247 251 252 253 254 255 259
269 241 227 227 223 216 215 215 213 210 207 205 203 200 199 200 200 200 200 203 205 207 207 208 209 209 210 211 211 211 214 216 217 215 214 217 223 225 222 223 223 220 221 231 232 224 224 229 230 228 231 241 246 242 240 239 238 241 246 245 243 243 244 245 250 254 255 256 257 252 247 244 232 221 225 237 244 246 249 249 252 256 255 253 257
272 259 236 229 228 225 222 221 219 215 209 206 203 201 201 202 200 200 203 207 208 208 207 208 208 209 210 211 212 214 214 215 218 217 215 217 223 223 221 221 220 217 217 224 226 222 224 229 230 229 231 241 245 242 241 242 241 243 247 247 247 249 250 251 256 260 259 258 259 257 253 247 236 227 230 240 247 248 249 250 252 254 252 249 254
263 260 241 231 229 227 224 222 219 215 211 208 205 204 204 203 202 204 208 208 206 207 208 208 208 209 210 210 211 212 213 216 219 217 213 214 219 220 219 220 220 219 218 218 221 224 226 228 229 229 233 239 240 239 240 240 241 245 248 250 253 255 255 254 257 261 261 260 262 264 258 250 244 239 240 250 257 257 255 256 254 249 246 248 255
249 247 234 225 225 223 220 219 217 214 213 211 207 205 204 204 205 208 208 205 205 207 208 208 208 208 209 210 210 212 216 219 220 216 211 211 216 217 217 220 222 220 217 214 218 225 227 229 229 230 233 237 237 238 239 239 241 244 247 251 255 256 255 256 259 262 264 265 268 270 263 251 246 248 252 261 267 265 260 258 253 246 247 252 256
235 239 232 223 221 221 220 219 216 213 213 212 209 208 208 209 209 208 205 204 206 207 206 206 206 206 208 211 214 218 219 219 219 217 211 208 213 217 217 220 225 222 217 214 221 226 228 230 231 231 234 237 238 238 238 240 242 244 247 250 253 253 253 256 260 263 265 267 268 268 264 252 246 249 256 263 265 261 256 250 244 245 253 256 257
229 236 236 232 228 223 219 215 213 214 216 214 211 210 209 209 209 206 204 204 205 205 205 206 206 207 210 213 215 216 217 214 215 217 213 207 211 218 218 220 225 223 219 220 227 229 231 233 234 234 236 240 242 239 238 240 242 244 246 248 250 252 253 256 259 261 263 267 266 264 263 257 250 250 255 258 258 256 251 243 238 245 254 257 259
231 233 236 238 236 229 221 215 215 220 223 219 215 213 211 208 206 204 204 204 204 205 206 207 208 209 212 214 213 213 214 213 212 215 214 210 211 216 215 218 223 222 221 225 230 231 233 237 238 239 240 244 246 243 240 242 244 245 245 245 246 249 251 253 255 256 260 263 261 258 260 260 257 254 254 256 257 256 254 247 241 245 253 256 258
239 240 241 240 238 233 227 221 217 219 220 218 213 208 205 200 196 196 200 203 205 206 206 205 206 208 213 215 213 213 214 211 208 209 210 210 212 215 216 219 221 220 220 223 228 231 233 237 241 243 244 245 246 243 242 245 246 247 247 246 247 248 248 249 251 254 259 261 258 254 255 256 257 257 256 256 253 251 253 251 246 246 252 254 254
245 248 245 239 235 229 225 221 214 210 213 214 209 202 199 196 194 196 200 204 207 208 206 204 205 208 212 214 213 215 215 211 206 206 209 209 211 215 221 225 226 223 220 222 226 229 231 235 242 246 248 248 247 245 247 251 252 252 253 252 251 251 251 252 256 259 262 262 258 254 252 252 254 256 255 253 250 249 252 255 251 249 250 251 251
243 244 240 234 229 222 218 215 211 207 209 212 208 204 203 201 201 203 204 205 208 208 207 206 207 210 212 211 211 213 213 208 206 208 210 211 212 214 221 231 236 234 229 227 229 230 230 234 242 250 256 257 256 256 260 263 263 262 261 260 259 259 261 263 265 267 266 263 259 255 253 253 253 254 254 253 252 251 253 257 257 253 251 252 253
236 234 226 218 215 215 213 209 207 204 204 201 197 196 197 197 199 202 204 205 205 205 206 206 207 211 213 209 205 204 203 202 205 209 211 214 215 215 221 230 239 241 236 231 229 229 231 241 250 258 265 268 268 269 268 263 257 255 258 261 262 263 265 266 267 266 264 262 258 254 253 254 253 252 252 253 254 254 256 260 262 259 256 257 257
239 228 216 202 196 199 202 200 199 198 196 192 188 189 192 194 196 201 204 203 201 201 203 205 207 210 210 204 199 199 200 202 207 211 215 215 214 215 220 225 233 240 238 234 232 232 238 248 255 261 265 262 255 247 241 238 238 239 245 251 253 254 256 256 256 257 257 257 255 253 254 255 255 254 253 252 253 255 257 260 263 260 258 258 258